K3TOW Weather Reports


Display with metric or nautical units.
time (UTC)temp
F
wind
direction
speed
MPH
gust
MPH
rain 1hr
in
rain 24hr
in
rain mn
in
humidity
%
barometer
mb
20260508031003 48 0 0.0 0.0 0.00 0.00 0.00 86 1008.8
20260508030004 48 0 0.0 0.0 0.00 0.00 0.00 87 1008.2
20260508025003 48 0 0.0 0.0 0.00 0.00 0.00 86 1007.6
20260508024215 48 0 0.0 0.0 0.00 0.00 0.00 86 1007.6
20260508023003 48 0 0.0 0.0 0.00 0.00 0.00 87 1007.6
20260508022213 48 0 0.0 0.0 0.00 0.00 0.00 86 1007.6
20260508021003 48 0 0.0 0.0 0.00 0.00 0.00 85 1007.4
20260508020003 48 0 0.0 0.0 0.00 0.00 0.00 85 1007.4
20260508015003 48 0 0.0 0.0 0.00 0.00 0.00 84 1007.5
20260508014003 48 0 0.0 0.0 0.00 0.00 0.00 83 1007.4
20260508013003 48 0 0.0 0.0 0.00 0.00 0.00 83 1007.2
20260508012213 49 0 0.0 0.0 0.00 0.00 0.00 81 1007.1
20260508011003 49 0 0.0 0.0 0.00 0.00 0.00 80 1007.1
20260508010003 50 0 0.0 0.0 0.00 0.00 0.00 79 1007.0
20260508005213 50 0 0.0 0.0 0.00 0.00 0.00 77 1006.8
20260508004003 51 0 0.0 0.0 0.00 0.00 0.00 75 1006.8
20260508003213 52 0 0.0 0.0 0.00 0.00 0.00 75 1006.8
20260508002003 53 0 0.0 0.0 0.00 0.00 0.00 72 1006.7
20260508001003 54 0 0.0 0.0 0.00 0.00 0.00 69 1006.6
20260508000003 54 0 0.0 0.0 0.00 0.00 0.00 70 1006.5
20260507235003 55 0 0.0 0.0 0.00 0.00 0.00 68 1006.5
20260507234003 56 0 0.0 0.0 0.00 0.00 0.00 65 1006.3
20260507233003 57 0 0.0 0.0 0.00 0.00 0.00 63 1006.2
20260507232003 57 282 0.0 2.0 0.00 0.00 0.00 54 1006.2
20260507231003 58 285 1.0 3.0 0.00 0.00 0.00 49 1006.1
20260507230003 58 194 1.0 2.0 0.00 0.00 0.00 48 1006.1
20260507225003 59 273 1.0 4.0 0.00 0.00 0.00 47 1006.1
20260507224003 59 243 1.0 5.0 0.00 0.00 0.00 47 1006.1
20260507223003 59 271 1.0 6.0 0.00 0.00 0.00 47 1006.0
20260507222003 59 250 0.0 2.0 0.00 0.01 0.00 51 1006.0
20260507221214 59 257 1.0 3.0 0.00 0.01 0.00 46 1006.0
20260507220003 59 296 0.0 3.0 0.00 0.01 0.00 46 1005.9
20260507215003 60 291 1.0 6.0 0.00 0.01 0.00 45 1006.0
20260507214003 60 297 1.0 6.0 0.00 0.01 0.00 45 1006.0
20260507213003 60 276 1.0 4.0 0.00 0.01 0.00 46 1006.1
20260507212214 60 296 2.0 7.0 0.00 0.01 0.00 45 1006.1
20260507211003 60 285 1.0 6.0 0.00 0.01 0.00 43 1006.1
20260507210214 60 280 1.0 4.0 0.00 0.01 0.00 42 1006.1
20260507205003 60 31 0.0 3.0 0.00 0.01 0.00 44 1005.9
20260507204003 60 294 2.0 4.0 0.00 0.01 0.00 43 1005.9
20260507203213 60 283 2.0 4.0 0.00 0.01 0.00 43 1006.0
20260507202004 61 273 2.0 6.0 0.00 0.01 0.00 41 1006.0
20260507201003 62 116 1.0 3.0 0.00 0.01 0.00 39 1006.1
20260507200003 63 355 1.0 6.0 0.00 0.01 0.00 38 1006.2
20260507195213 64 343 1.0 4.0 0.00 0.01 0.00 39 1006.2
20260507194003 64 20 2.0 9.0 0.00 0.01 0.00 37 1006.2
20260507193003 64 332 2.0 6.0 0.00 0.01 0.00 41 1006.3
20260507192003 63 307 2.0 10.0 0.00 0.01 0.00 41 1006.3
20260507191003 62 252 1.0 3.0 0.00 0.01 0.00 41 1006.4
20260507190004 61 332 1.0 3.0 0.00 0.01 0.00 40 1006.5
20260507185003 60 322 2.0 7.0 0.00 0.01 0.00 43 1006.7
20260507184003 61 331 2.0 6.0 0.00 0.01 0.00 43 1006.9
20260507183003 60 354 1.0 4.0 0.00 0.01 0.00 43 1007.0
20260507182003 60 284 1.0 4.0 0.00 0.01 0.00 43 1007.0
20260507181003 60 309 2.0 6.0 0.00 0.01 0.00 42 1007.1
20260507180003 60 185 1.0 5.0 0.00 0.01 0.00 47 1007.1
20260507175003 59 259 2.0 4.0 0.00 0.01 0.00 45 1007.4
20260507174003 58 286 2.0 6.0 0.00 0.02 0.00 44 1007.4
20260507173003 59 282 1.0 6.0 0.00 0.02 0.00 46 1007.6
20260507172003 58 298 2.0 9.0 0.00 0.02 0.00 44 1007.7
20260507171214 58 296 1.0 7.0 0.00 0.03 0.00 46 1007.9
20260507170214 58 295 2.0 9.0 0.00 0.03 0.00 44 1007.9
20260507165003 58 275 1.0 6.0 0.00 0.04 0.00 45 1008.1
20260507164003 59 339 2.0 6.0 0.00 0.04 0.00 44 1008.3
20260507163003 59 304 1.0 9.0 0.00 0.04 0.00 43 1008.3
20260507162003 60 357 2.0 6.0 0.00 0.05 0.00 42 1008.5
20260507161003 59 297 3.0 11.0 0.00 0.06 0.00 45 1008.5
20260507160004 59 75 2.0 9.0 0.00 0.07 0.00 45 1008.7
20260507155003 57 281 2.0 8.0 0.00 0.07 0.00 45 1008.9
20260507154003 58 290 1.0 4.0 0.00 0.08 0.00 46 1008.9
20260507153003 58 332 2.0 6.0 0.00 0.10 0.00 45 1009.1
20260507152003 57 19 1.0 3.0 0.00 0.11 0.00 44 1009.3
20260507151003 56 338 2.0 5.0 0.00 0.14 0.00 49 1009.4
20260507150003 57 99 1.0 4.0 0.00 0.16 0.00 49 1009.4
20260507145003 56 287 1.0 6.0 0.00 0.17 0.00 52 1009.5
20260507144003 56 343 1.0 4.0 0.00 0.19 0.00 53 1009.6
20260507143003 55 298 0.0 3.0 0.00 0.20 0.00 55 1009.8
20260507142003 55 0 0.0 0.0 0.00 0.22 0.00 60 1009.9
20260507141003 54 308 0.0 3.0 0.00 0.23 0.00 62 1009.9
20260507140004 53 302 1.0 4.0 0.00 0.25 0.00 61 1010.0
20260507135003 53 291 1.0 6.0 0.00 0.27 0.00 63 1010.2
20260507134213 52 309 0.0 2.0 0.00 0.27 0.00 65 1010.4
20260507133003 51 0 0.0 0.0 0.00 0.29 0.00 68 1010.5
20260507132212 50 292 0.0 1.0 0.00 0.30 0.00 70 1010.4
20260507131003 49 298 0.0 3.0 0.00 0.32 0.00 73 1010.5
20260507130003 48 309 1.0 3.0 0.00 0.33 0.00 74 1010.5
20260507125003 47 324 1.0 3.0 0.00 0.35 0.00 77 1010.5
20260507124212 46 353 0.0 2.0 0.00 0.36 0.00 78 1010.5
20260507123003 46 328 1.0 4.0 0.00 0.38 0.00 78 1010.4
20260507122003 45 303 0.0 3.0 0.00 0.38 0.00 81 1010.4
20260507121003 45 267 0.0 3.0 0.00 0.38 0.00 83 1010.3
20260507120214 44 271 1.0 4.0 0.00 0.39 0.00 84 1010.3
20260507115003 43 0 0.0 0.0 0.00 0.39 0.00 91 1010.3
20260507114003 43 0 0.0 0.0 0.00 0.39 0.00 91 1010.2
20260507113003 42 0 0.0 0.0 0.00 0.39 0.00 93 1010.2
20260507112003 42 0 0.0 0.0 0.00 0.39 0.00 94 1010.1
20260507111214 41 0 0.0 0.0 0.00 0.39 0.00 94 1010.1
20260507110003 41 0 0.0 0.0 0.00 0.39 0.00 94 1010.1
20260507105003 41 0 0.0 0.0 0.00 0.39 0.00 94 1010.0
20260507104003 41 0 0.0 0.0 0.00 0.39 0.00 93 1010.0
20260507103003 41 0 0.0 0.0 0.00 0.39 0.00 93 1009.9
20260507102003 42 0 0.0 0.0 0.00 0.39 0.00 93 1009.7
20260507101003 42 0 0.0 0.0 0.00 0.39 0.00 93 1009.6
20260507100004 43 199 0.0 4.0 0.00 0.39 0.00 93 1009.5
20260507095003 43 63 0.0 1.0 0.00 0.39 0.00 93 1009.4
20260507094003 43 63 0.0 1.0 0.00 0.39 0.00 92 1009.3
20260507093003 44 63 0.0 1.0 0.00 0.39 0.00 92 1009.2
20260507092213 45 0 0.0 0.0 0.00 0.39 0.00 92 1009.2
20260507091003 45 63 0.0 1.0 0.00 0.39 0.00 92 1009.2
20260507090004 46 63 0.0 2.0 0.00 0.39 0.00 91 1009.1
20260507085003 46 64 0.0 2.0 0.00 0.39 0.00 90 1008.9
20260507084213 46 314 0.0 2.0 0.00 0.39 0.00 92 1008.8
20260507083004 46 267 1.0 4.0 0.00 0.39 0.00 92 1008.8
20260507082003 46 0 0.0 0.0 0.00 0.39 0.00 93 1008.9
20260507081003 46 0 0.0 0.0 0.00 0.39 0.00 93 1009.0
20260507080213 46 0 0.0 0.0 0.00 0.39 0.00 93 1008.9
20260507075003 46 0 0.0 0.0 0.00 0.39 0.00 93 1009.2
20260507074003 47 0 0.0 0.0 0.00 0.39 0.00 92 1009.2
20260507073004 47 296 0.0 5.0 0.00 0.39 0.00 94 1009.3
20260507072003 48 0 0.0 0.0 0.00 0.39 0.00 95 1009.3
20260507071003 48 0 0.0 0.0 0.00 0.39 0.00 95 1009.4
20260507070004 48 0 0.0 0.0 0.00 0.39 0.00 95 1009.4
20260507065214 48 0 0.0 0.0 0.00 0.39 0.00 95 1009.4
20260507064003 48 0 0.0 0.0 0.00 0.39 0.00 95 1009.4
20260507063003 48 0 0.0 0.0 0.00 0.39 0.00 95 1009.3
20260507062003 48 0 0.0 0.0 0.00 0.39 0.00 95 1009.1
20260507061003 48 0 0.0 0.0 0.00 0.39 0.00 95 1009.1
20260507060003 48 0 0.0 0.0 0.00 0.39 0.00 94 1009.0
20260507055003 48 0 0.0 0.0 0.00 0.39 0.00 94 1009.0
20260507054003 49 0 0.0 0.0 0.00 0.39 0.00 95 1009.0
20260507053004 49 0 0.0 0.0 0.00 0.39 0.00 95 1008.8
20260507052003 49 0 0.0 0.0 0.00 0.39 0.00 94 1008.8
20260507051214 49 0 0.0 0.0 0.00 0.39 0.00 94 1008.7
20260507050213 49 0 0.0 0.0 0.00 0.39 0.00 95 1008.9
20260507045003 49 0 0.0 0.0 0.00 0.39 0.00 94 1008.7
20260507044213 49 0 0.0 0.0 0.00 0.39 0.00 94 1008.7
20260507043213 49 0 0.0 0.0 0.00 0.39 0.00 94 1008.7
20260507042003 49 0 0.0 0.0 0.00 0.39 0.00 94 1008.7
20260507041213 49 0 0.0 0.0 0.00 0.39 0.00 94 1008.9
20260507040004 50 0 0.0 0.0 0.00 0.39 0.00 94 1008.9
20260507035003 50 0 0.0 0.0 0.00 0.39 0.39 93 1009.3
20260507034003 50 0 0.0 0.0 0.00 0.39 0.39 93 1009.1
20260507033003 50 0 0.0 0.0 0.00 0.39 0.39 93 1009.0
20260507032003 50 0 0.0 0.0 0.00 0.39 0.39 93 1009.0